www.pogodaiklimat.ru

Погода и климат >> Архив погоды >> Колумбия >> Valledupar


ПОГОДА в Valledupar

  • Прогноз погоды в Valledupar
  • Монитор погоды в Valledupar
  • Климат города

АРХИВ ПОГОДЫ в Valledupar

Время (UTC), дата Ветер
(напр.,м/с)
 
Видим.   Явления Облачность Т
(С)
Тd
(С)
f
(%)
Тe
(С)
Тes
(С)
Комфортность P
(гПа)
Po
(гПа)
Тmin
(С)
Tmax
(С)
R
(мм)
R24
(мм)
S
(см)
18 9.08 Ю 4 15 км мгла 5/3 600 м
[Cu Sc Cs]
+32.8 +23.9 60 +45 +54 опасность
перегрева
1012.7 1012.2
21 9.08 штиль 0 12 км мгла 10/3 600 м
[Cu med, cong Ac As Cs]
+28.7 +20.9 63 +36 +39 очень
душно
1001.2 1010.7
00 10.08 ЮЗ 2 12 км гроза без осадков 10/3 600 м
[Cb cap Ac As Cs]
+27.8 +23.7 78 +38 +38 очень
душно
1012.8 1012.3 +33.3
12 10.08 штиль 0 6000 м туман на расстоянии 10/4 300 м
[Cu Sc Ac As Cs]
+24.4 +23.8 96 +33 +34 очень
душно
1015.9 1015.4 +23.0 31
15 10.08 СВ 3 9000 м мгла 6/3 450 м
[Cu Sc Cs]
+29.4 +24.2 74 +41 +50 опасность
перегрева
1015.9 1014.7
18 10.08 СВ 4 15 км мгла 8/3 450 м
[Cu Sc Cs]
+33.4 +24.2 59 +46 +54 опасность
перегрева
1013.3 1012.8
21 10.08 З 3 15 км мгла 9/4 450 м
[Cu med, cong Ac As Cs]
+30.0 +25.2 76 +44 +45 опасность
перегрева
1010.9 1010.4
00 11.08 штиль 0 15 км мгла 10/4 450 м
[Cu med, cong Cs]
+29.6 +25.6 79 +44 +44 опасность
перегрева
1011.4 1010.9 +34.3
12 11.08 СЗ 2 10 км мгла 6/1 300 м
[Frnb Ac As Cs]
+25.3 +23.5 90 +34 +36 очень
душно
1013.7 1013.2 +24.9
15 11.08 В 3 15 км мгла 6/3 300 м
[Cu med, cong Cs]
+30.1 +24.0 70 +42 +51 опасность
перегрева
1013.9 1013.4
18 11.08 штиль 0 15 км мгла 6/3 450 м
[Cu Sc Cs]
+32.6 +23.6 59 +44 +61 опасность
перегрева
1012.5 1012.0
21 11.08 ЮЗ 2 15 км мгла 8/3 600 м
[Cu med, cong Cs]
+33.6 +24.2 58 +46 +49 опасность
перегрева
1010.4 1009.9
00 12.08 ЮЗ 2 15 км зарница 9/3 450 м
[Cb calv Ac As Cs]
+30.0 +24.6 73 +43 +43 опасность
перегрева
1011.3 1010.8 +34.0
03 12.08 штиль 0 9000 м гроза, ливневой дождь 10/6 450 м
[Cb cap Ac As]
+25.6 +23.1 86 +34 +34 очень
душно
1014.6 1014.1
12 12.08 З 2 4000 м осадки на расстоянии 10/9 100 м
[Frnb Ac As]
+23.4 +22.8 96 +33 +33 очень
душно
1015.9 1015.4 +22.9 0.4
15 12.08 штиль 0 10 км мгла {морось} 9/3 360 м
[Cu Sc Ac As Cs]
+28.2 +24.7 81 +40 +49 очень
душно
1016.2 1015.7
18 12.08 Ю 6 10 км осадки на расстоянии {морось} 10/4 300 м
[Cu Sc Ac As Cs]
+28.8 +25.0 80 +42 +44 опасность
перегрева
1014.0 1013.5 0.6
21 12.08 Ю 2 15 км мгла 10/3 450 м
[Cu Sc Ac trans Cs]
+30.0 +23.7 69 +41 +43 опасность
перегрева
1011.4 1010.9
00 13.08 штиль 0 15 км мгла 10/1 450 м
[Sc Ac trans Cs]
+28.4 +24.3 78 +40 +40 очень
душно
1012.0 1011.5 +30.8
06 13.08 штиль 0 9000 м мгла 9/5 100 м
[Sc Ac trans Cs]
+25.6 +24.8 95 +36 +36 очень
душно
1014.5 1014.0 +24.5 0.6
12 13.08 штиль 0 9000 м мгла 9/5 100 м
[Sc Ac trans Cs]
+25.6 +24.8 95 +36 +37 очень
душно
1014.5 1014.0 +24.5 0.6
15 13.08 ЮЗ 2 10 км мгла 6/5 300 м
[Cu Sc Ci sp]
+29.6 +25.0 76 +42 +51 опасность
перегрева
1015.6 1015.1
18 13.08 ЮВ 3 15 км мгла 4/3 600 м
[Cu Sc Ci sp]
+32.6 +22.4 55 1012.9 1012.4
21 13.08 Ю 3 15 км мгла 4/3 600 м
[Cu Sc Ci sp]
+36.2 +22.4 45 +45 +48 опасность
перегрева
1010.4 1009.9
00 14.08 ЮВ 3 15 км мгла 8/3 600 м
[Cu Sc Ac As Cs]
+28.8 +23.3 72 +39 +39 очень
душно
1012.2 1011.7 +36.4
12 14.08 В 5 15 км мгла 3/1 300 м
[Sc Ci sp]
+25.8 +21.9 79 +33 +34 очень
душно
1012.5 1012.0 +25.4
15 14.08 В 5 15 км мгла 5/1 450 м
[Cu hum Ci sp]
+31.0 +23.6 65 +42 +50 опасность
перегрева
1013.1 1012.6
18 14.08 В 4 15 км мгла 3/1 600 м
[Cu Sc Ci sp]
+34.3 +21.4 47 +42 +54 опасность
перегрева
1010.4 1009.9
21 14.08 В 3 15 км мгла 3/1 600 м
[Cu Sc Ci sp]
+35.5 +19.4 39 +41 +45 опасность
перегрева
1008.1 1007.6
00 15.08 ЮВ 4 15 км мгла 6/3 600 м
[Cu Sc Ac As Cs]
+32.3 +21.9 54 +41 +41 опасность
перегрева
1009.3 1008.8 +36.2
12 15.08 В 6 15 км мгла 5/1 600 м
[Cu Sc Cs]
+26.8 +22.6 78 +35 +36 очень
душно
1010.8 1010.3 +25.7
15 15.08 В 5 15 км мгла 3/1 600 м
[Cu Sc Ci sp]
+32.5 +20.5 49 +39 +47 очень
душно
1011.6 1011.1
18 15.08 В 5 15 км мгла 4/1 600 м
[Cu Sc Ci sp]
+35.0 +19.4 40 +40 +49 очень
душно
1009.4 1008.9
21 15.08 В 5 15 км мгла 4/1 600 м
[Cu Sc Ci sp]
+36.8 +20.9 40 +44 +46 опасность
перегрева
1007.4 1006.9
00 16.08 СВ 4 15 км мгла 5/3 450 м
[Cu Sc Ci sp]
+32.2 +20.6 50 +39 +39 очень
душно
1009.0 1008.5 +37.0
12 16.08 В 4 15 км мгла 10/1 300 м
[Sc Cs]
+26.2 +22.9 82 +35 +36 очень
душно
1013.6 1013.1 +26.0
15 16.08 В 5 15 км мгла 10/1 600 м
[Sc Cs]
+30.4 +23.3 66 +41 +48 опасность
перегрева
1013.1 1012.6

 

Местоположение метеостанции Valledupar (Колумбия): широта 10.43 долгота -73.25 высота над уровнем моря 138 м.

В архиве по умолчанию представлена погода в Valledupar за последнюю неделю. Архивные данные за месяц целиком и за предыдущие месяцы, начиная с января 2011 года, Вы можете получить, выбрав интересующий диапазон дат из раскрывающегося списка и нажав кнопку "Ввод!".

Внимание! Время в таблицах - всемирное. Для получения местного времени необходимо прибавить поправку, которая в Valledupar равна -5 ч.

Смотрите также архив погоды в соседних городах и на ближайших метеорологических станциях:

Погода в Riohacha (Колумбия) (127 км)
Погода в Santa Marta (Колумбия) (132 км)
Погода в Maracaibo - La Chinit (Венесуэла) (167 км)
Погода в Barranquilla (Колумбия) (175 км)
Погода в Maracaibo - La Canada (Венесуэла) (175 км)
Погода в Cartagena (Колумбия) (247 км)
Погода в Mene Grande (Венесуэла) (263 км)
Погода в El Vigia (Венесуэла) (266 км)
Погода в Cucuta (Колумбия) (290 км)
Погода в San Antonio del Tachira (Венесуэла) (300 км)

Пояснения к столбцам:

Ветер - указаны скорость ветра в м/с - средняя за 10 мин, порывы в срок и между сроками (в фигурных скобках) и направление, откуда дует ветер: С - северный, СВ - северо-восточный, В - восточный, ЮВ - юго-восточный, Ю - южный, ЮЗ - юго-западный, З - западный, СЗ - северо-западный.
Видимость - горизонтальная дальность видимости в метрах или километрах. При видимости от 1 до 10 км при отсутствии осадков обычно наблюдается дымка, при ухудшении видимости до 1 км и менее - туман. В сухую погоду видимость может ухудшаться дымом, пылью или мглою.
Явления - указаны атмосферные явления, наблюдавшиеся в срок или в последний час перед сроком; фигурными скобками обозначены явления, наблюдавшиеся между сроками (за 1-3 часа до срока); квадратными скобками обозначены град или гололедные отложения с указанием их диаметра в мм.
Облачность - указаны через наклонную черту общая и нижняя облачность в баллах и высота нижней границы облаков в метрах; квадратными скобками обозначены формы облаков: Ci - перистые, Cs - перисто-слоистые, Cc - перисто-кучевые, Ac - высококучевые, As - высокослоистые, Sc - слоисто-кучевые, Ns - слоисто-дождевые, Cu - кучевые, Cb - кучево-дождевые. Подробнее классификацию облаков см. в Атласе облаков (PDF).
T - Температура воздуха - температура, измеренная на высоте 2 м над землей.
Td - Температура точки росы - температура, при понижении до которой содержащийся в воздухе водяной пар достигнет насыщения.
f - Относительная влажность воздуха - влажноcть воздуха, измеренная на высоте 2 м над землей.
Te - Эффективная температура - температура, которую ощущает одетый по сезону человек в тени. Характеристика душности погоды. При расчете учитывается влияние влажности воздуха и скорости ветра на теплоощущения человека.
Tes - Эффективная температура на солнце - температура, которую ощущает человек, с поправкой на солнечный нагрев. Характеристика знойности погоды. Зависит от высоты солнца над горизонтом, облачности и скорости ветра. Ночью, в пасмурную погоду, а также при ветре 12 м/с и более поправка равна нулю.
P - Атмосферное давление - приведенное к уровню моря атмосферное давление.
Po - Атмосферное давление - измеренное на уровне метеостанции атмосферное давление.
Tmin - Минимальная температура - минимум температуры воздуха на высоте 2 м над землей.
Tmax - Максимальная температура - максимум температуры воздуха на высоте 2 м над землей.
R - Количество осадков - Количество выпавших осадков за период времени, мм. При наведении курсора мыши на число - период времени, за который выпало указанное количество осадков.
R24 - Количество осадков - Количество выпавших осадков за 24 часа, мм.
S - Снежный покров - Высота снежного покрова, см. При наведении курсора мыши на число - состояние снежного покрова и степень покрытия местности в баллах.